Home   Weather   Town of Fairfield   Past weeks
Flag for USA

Past Weather in Town of Fairfield, New York, USA — Yesterday and Last 2 Weeks

Now
21 °F

Light snow. Ice fog.


Feels Like: 21 °F
Forecast: 28 / 18 °F
Wind: No wind

Location: Griffiss Air Force Base / Rome

Current Time: Dec 7, 2019 at 4:11:52 am

Latest Report: Dec 7, 2019 at 3:32 am


Visibility: 3 mi

Pressure: 30.25 "Hg

Humidity: 100%

Dew Point: 21 °F

Location of Town of FairfieldLocation

Past Weather in Town of Fairfield — Graph

°F

Town of Fairfield Temperature Yesterday

Maximum temperature yesterday: 31 °F (at 2:39 pm)
Minimum temperature yesterday: 20 °F (at 10:53 pm)
Average temperature yesterday: 28 °F

High & Low Weather Summary for the Past Weeks

 TemperatureHumidityPressure
High58 °F (Nov 26, 12:53 pm)100% (Nov 22, 7:53 am)30.39 "Hg (Nov 22, 7:53 am)
Low12 °F (Dec 3, 6:53 am)49% (Nov 23, 1:53 pm)29.42 "Hg (Dec 4, 1:23 pm)
Average32 °F88%29.82 "Hg
* Reported Nov 22 3:53 am — Dec 7 3:01 am, Town of Fairfield. Weather by CustomWeather, © 2019

Note: Actual official high and low records may vary slightly from our data, if they occured in-between our weather recording intervals... More about our weather records

Town of Fairfield Weather History for the Previous 24 Hours

Scroll right to see more
 ConditionsComfort  
Time TempWeatherWind HumidityBarometerVisibility
3:01 am
Sat, Dec 7
22 °FLight snow. Ice fog.No wind96%30.23 "Hg2 mi
1:53 am22 °FOvercast.No wind92%30.24 "Hg10 mi
12:53 am20 °FMostly cloudy.3 mph96%30.23 "Hg10 mi
11:53 pm
Fri, Dec 6
20 °FOvercast.No wind96%30.22 "Hg10 mi
10:53 pm20 °FPassing clouds.5 mph89%30.22 "Hg10 mi
9:53 pm24 °FOvercast.8 mph81%30.21 "Hg10 mi
9:15 pm21 °FPassing clouds.9 mph85%30.18 "Hg10 mi
8:53 pm26 °FOvercast.14 mph74%30.18 "Hg10 mi
7:53 pm28 °FOvercast.12 mph81%30.16 "Hg10 mi
6:53 pm29 °FMostly cloudy.15 mph89%30.11 "Hg10 mi
5:53 pm30 °FMostly cloudy.7 mph100%30.06 "Hg10 mi
5:11 pm31 °FMostly cloudy.9 mph100%30.02 "Hg10 mi
4:53 pm31 °FLight snow. Ice fog.7 mph100%30.01 "Hg6 mi
4:24 pm31 °FOvercast.7 mph100%29.97 "Hg9 mi
4:06 pm31 °FOvercast.8 mph100%29.96 "Hg10 mi
3:38 pm30 °FMostly cloudy.5 mph100%29.92 "Hg10 mi
3:19 pm30 °FLight snow. Ice fog.5 mph100%29.91 "Hg3 mi
3:12 pm30 °FLight snow. Ice fog.5 mph100%29.90 "Hg1 mi
2:53 pm30 °FLight snow. Ice fog.No wind100%29.91 "Hg1 mi
2:39 pm31 °FLight snow. Ice fog.No wind96%29.89 "Hg1 mi
2:28 pm30 °FLight snow. Ice fog.No wind100%29.88 "Hg1 mi
1:53 pm30 °FSnow. Ice fog.No wind100%29.88 "Hg1 mi
1:12 pm30 °FLight snow. Ice fog.5 mph96%29.87 "Hg2 mi
12:53 pm30 °FLight snow. Ice fog.6 mph96%29.89 "Hg4 mi
12:38 pm29 °FLight snow. Ice fog.6 mph96%29.88 "Hg2 mi
12:23 pm29 °FLight snow. Ice fog.7 mph96%29.89 "Hg3 mi
12:11 pm29 °FLight snow. Ice fog.7 mph96%29.89 "Hg2 mi
11:53 am29 °FLight snow. Ice fog.8 mph96%29.91 "Hg1 mi
11:39 am29 °FLight snow. Ice fog.7 mph96%29.91 "Hg1 mi
10:53 am29 °FLight snow. Ice fog.6 mph96%29.94 "Hg1 mi
9:53 am28 °FLight snow. Ice fog.8 mph100%29.98 "Hg1 mi
9:01 am27 °FLight snow. Ice fog.7 mph96%29.99 "Hg1 mi
8:33 am27 °FLight snow. Ice fog.7 mph92%29.99 "Hg2 mi
7:53 am27 °FOvercast.6 mph89%30.01 "Hg9 mi
6:53 am27 °FOvercast.6 mph89%30.03 "Hg10 mi
6:14 am26 °FLight snow. Mostly cloudy.8 mph92%30.03 "Hg9 mi
5:53 am26 °FMostly cloudy.7 mph92%30.06 "Hg10 mi
5:38 am26 °FLight snow. Overcast.5 mph92%30.05 "Hg9 mi
4:53 am26 °FOvercast.3 mph92%30.07 "Hg10 mi
Weather by CustomWeather, © 2019

See weather overview

Advertising